AirNav   Air Wisconsin pilot careers
 
 310 users online  

96WI Vette/Blust Seaplane Base
Oshkosh, Wisconsin, USA

GOING TO OSHKOSH?


FAA INFORMATION EFFECTIVE 25 APRIL 2019

Location

FAA Identifier: 96WI
Lat/Long: 43-56-27.9470N / 088-29-37.4060W
43-56.465783N / 088-29.623433W
43.9410964 / -88.4937239
(estimated)
Elevation: 750 ft. / 229 m (estimated)
Variation: 01W (1985)
From city: 5 miles W of OSHKOSH, WI
Time zone: UTC -5 (UTC -6 during Standard Time)
Zip code: 54979

Seaplane Base Operations

Seaplane Base use: Private use. Permission required prior to landing
Activation date: 02/1982
Control tower: no
ARTCC: CHICAGO CENTER
FSS: GREEN BAY FLIGHT SERVICE STATION
Attendance: UNATNDD
OPEN JULY 29 TH AUG 7 F EAA CONVENTION.
Wind indicator: no
Segmented circle: no

Seaplane Base Communications

WX ASOS at OSH (4 nm NW): PHONE 920-426-1644
WX ASOS at FLD (10 nm S): 134.0 (920-922-4444)
WX AWOS-3 at ATW (19 nm N): PHONE 920-832-2597

Nearby radio navigation aids

VOR radial/distance  VOR name  Freq  Var
OSHr136/4.0OSHKOSH VORTAC111.8002E
FAHr292/29.8FALLS VOR/DME110.0002W
BJBr334/(35.0)WEST BEND VOR109.8001W
GRBr198/39.0GREEN BAY VORTAC115.5001E

 
NDB name  Hdg/Dist  Freq  Var  ID
POBER037/4.939503WOS --- ...
JUNEAU017/32.034401WUNU ..- -. ..-

Seaplane Base Services

Runway Information

Runway 7/25

Dimensions: 1300 x 60 ft. / 396 x 18 m
Surface: turf
RUNWAY 7  RUNWAY 25
Traffic pattern: leftleft

Runway N/S

Dimensions: 10000 x 4000 ft. / 3048 x 1219 m
Surface: water
RUNWAY N  RUNWAY S
Traffic pattern: leftleft

Seaplane Base Ownership and Management from official FAA records

Ownership: Privately-owned
Owner: JOHN VETTE & BURLEIGH BLUST
5050 LAKE ROAD
OSHKOSH, WI 54902
Phone 920-233-3732
Manager: JOHN VETTE & BURLEIGH BLUST
5050 LAKE ROAD
OSHKOSH, WI 54902
Phone 414-231-7370

Instrument Procedures

There are no published instrument procedures at 96WI.

Some nearby airports with instrument procedures:

KOSH - Wittman Regional Airport (4 nm NW)
KFLD - Fond Du Lac County Airport (10 nm S)
8D1 - New Holstein Municipal Airport (16 nm E)
KATW - Appleton International Airport (19 nm N)
KSBM - Sheboygan County Memorial Airport (30 nm E)
 
Loc | Ops | Rwys | IFR | FBO | Links
Com | Nav | Svcs | Stats | Notes
Area around 96WI (Vette/Blust Seaplane Base)
 
Road maps at: MapQuest Bing Google
 
Aerial photo
WARNING: Photo may not be current or correct
Aerial photo of 96WI (Vette/Blust Seaplane Base)
Do you have a better or more recent aerial photo of Vette/Blust Seaplane Base that you would like to share? If so, please send us your photo.

 
Sectional chart

 
Airport distance calculator
Flying to Vette/Blust Seaplane Base? Find the distance to fly.

From to 96WI

Sunrise and sunset
Times for 20-May-2019
 Local
(UTC-5)
 Zulu
(UTC)
Morning civil twilight04:5009:50
Sunrise05:2410:24
Sunset20:1701:17
Evening civil twilight20:5101:51

Current date and time
Zulu (UTC)  20-May-2019 09:44:46
Local (UTC-5)  20-May-2019 04:44:46
 
METAR
KOSH 
3nm NW 
200853Z AUTO 32011G18KT 10SM OVC016 06/03 A2986 RMK AO2 SLP117 60001 T00560028 51019
KFLD 
10nm S 
200938Z AUTO 31011KT 10SM SCT010 OVC017 05/04 A2989 RMK AO2 T00500039
KATW 
19nm N 
200935Z AUTO 30008KT 10SM BKN017 BKN025 OVC050 04/03 A2987 RMK AO2
TAF
KATW 
19nm N 
200520Z 2006/2106 31009G16KT P6SM SCT005 OVC012 TEMPO 2007/2010 4SM -DZ BKN005 FM201500 34012G19KT P6SM BKN020 FM201700 34010G16KT P6SM BKN035 FM201900 35009KT P6SM SCT050 FM202300 02004KT P6SM SCT250
NOTAMs
Click for the latest NOTAMs
NOTAMs are issued by the DoD/FAA and will open in a separate window not controlled by AirNav.

 

 
 

Would you like to see your business listed on this page?

 If your business provides an interesting product or service to pilots, flight crews, aircraft, or users of the Vette/Blust Seaplane Base, you should consider listing it here.  To start the listing process, click on the button below
 
Add a business
 

Other Pages about Vette/Blust Seaplane Base

Update a link
 
Copyright © AirNav, LLC. All rights reserved. Privacy Policy  Contact